map of NSI home
NSI - Airport
Location
City:  Yaoundé, Centre, Cameroon
Name:Yaoundé Nsimalen International Airport
ICAO:FKYS
IATA:NSI

Details
Type:Airport (Aerodrome, Airfield)
Use:Public/Civil, International (customs port of entry)
Latitude:3°43'21"N (3.722556)
Longitude:11°33'12"E (11.553269)
Datum:WGS 1984
Elevation:2278 ft (694 m)
Variation:0.58°W (WMM2015 magnetic declination)
0.12° annual change
Runways:1
Longest:11155 × 148 ft (3400 × 45 m), paved

Time
Time Zone:UTC+1
Local Time:

Weather
METAR:FKYS 192100Z /////KT 6000 TS FEW006 FEW016CB 22/22 Q1015 NOSIG
TAF:FKYS 191700Z 1918/2018 VRB04KT 9999 SCT016
BECMG 1919/1921 BKN006 FEW013CB PROB30 1921/1923 4000 TSRA
TEMPO 2000/2006 2500 BR
BECMG 2006/2010 BKN016

Related Locations
Nearby:
Farthest:CIS: 12214 mi / 19657 km
Kanton Island (Canton Island, Abariringa Island) [Canton Island Airport], P, KI

Find:

   beyond  
but within

Other Information
Maps:
NOTAMs:
Links:
Sources:

  
  • flag of Cameroon
  

Sectional Chart

Flight Planning
at skyvector.com

Satellite Image

Google Maps Satellite view

 

Copyright © 2004-2018 Karl L. Swartz. All rights reserved.
The Great Circle Mapper name and logo are trademarks of the Great Circle Mapper.
All other trademarks mentioned herein belong to their respective owners.
Please see credits for attibutions and further copyright information.

  Follow gcmap on Facebook Follow gcmap on Twitter Follow gcmap on Google+ GCmap on LinkedIn

hCard Microformat

Geo Microformat